[[{"header":{"parameterUnit":"m.s-1","parameterCategory":1,"la1":30.2992,"la2":30.254,"lo1":-89.0895,"lo2":-89.0443,"dy":0.0025,"dx":0.0025,"nx":19,"ny":19,"refTime":"2026-04-28T09:00:00:Z","depth":0,"parameterNumber":2,"parameterNumberName":"U-component_of_WINDS"},"data":[0,0,0,2.5731,2.5733,2.5831,2.5831,2.5983,2.5984,0,0,0,0,0,0,0,0,0,0,0,2.5717,2.5718,2.5731,2.5733,2.5831,2.5831,2.5982,2.5984,0,0,0,0,0,0,0,0,0,0,0,2.5716,2.5718,2.572,2.5734,2.5831,2.5831,2.5982,2.5899,0,0,0,0,0,0,0,0,0,0,2.58,2.5801,2.5717,2.572,2.5735,2.5831,2.5831,2.5895,2.5904,2.5949,0,2.5992,0,2.599,2.5996,2.5996,0,0,0,2.5723,2.5793,2.5806,2.572,2.5736,2.5831,2.5784,2.59,2.5911,2.5962,2.5994,2.5999,2.5993,2.5997,2.5998,2.6289,2.6291,0,0,2.5717,2.5743,2.5798,2.5814,2.5799,2.5781,2.5787,2.5906,2.5943,2.5994,2.6002,2.5995,2.5998,2.5999,2.6287,2.629,0,0,0,2.5709,2.5739,2.5748,2.5808,2.5824,2.5784,2.5791,2.5937,2.5938,2.6003,2.5997,2.5999,2.6001,2.6285,2.6288,2.6405,0,0,0,2.5705,2.5734,2.5747,2.5763,2.5822,2.5882,2.5821,2.593,2.5943,2.5996,2.5999,2.6003,2.6283,2.6287,2.6397,2.6457,0,0,0,2.5705,2.5734,2.5753,2.5764,2.5807,2.5879,2.5886,2.5932,2.594,2.5997,2.6003,2.6282,2.6286,2.639,2.6445,2.6541,0,0,0,2.5713,2.5856,2.5755,2.5913,2.5806,2.595,2.5885,2.5991,2.6054,2.6,2.6284,2.6288,2.6388,2.6438,2.6534,2.6628,2.6669,0,0,2.5907,2.588,2.5971,2.5884,2.6051,2.5933,2.6118,2.6152,2.6135,2.6239,2.6246,2.64,2.6444,2.654,2.6886,2.6919,0,0,0,2.6041,2.6106,2.6145,2.6205,2.6234,2.6264,2.6266,2.6279,2.6366,2.6193,2.6459,2.6485,2.654,2.6583,2.6611,2.6658,2.6309,2.6308,2.6308,2.6353,2.6323,2.6471,2.6452,2.6512,2.6512,2.6558,2.6575,2.6528,2.6591,2.6623,2.6836,2.6888,2.6909,2.6958,2.6668,2.6668,2.6669,2.6669,2.6637,2.6725,2.6657,2.6777,2.6744,2.6845,2.6851,2.6814,2.6904,2.681,2.6857,2.6759,2.6946,2.6987,2.6678,2.6676,2.6675,2.6674,2.6674,2.6839,2.6876,2.6888,2.6972,2.704,2.7016,2.7105,2.7072,2.7041,2.7088,2.7118,2.7116,2.7111,2.7104,2.7105,2.7105,2.7106,2.7107,2.7107,2.7046,2.7055,2.7134,2.7176,2.721,2.7251,2.7253,2.7286,2.7315,2.7284,2.7284,2.7231,2.6969,2.6905,2.7119,2.7116,2.7115,2.7114,2.7113,2.7347,2.7273,2.7395,2.7429,2.7476,2.7547,2.7502,2.7573,2.7595,2.7641,2.7577,2.7388,2.7359,2.7336,2.7283,2.7582,2.7582,2.7582,2.7582,2.7519,2.75,2.7617,2.7674,2.7727,2.7699,2.7839,2.7842,2.7834,2.7846,2.7797,2.7723,2.7702,2.7685,2.7655,2.7605,2.7979,2.798,2.798,2.7704,2.7688,2.7813,2.7803,2.7837,2.7867,2.7998,2.8068,2.8043,2.7996,2.7855,2.7839,2.7719,2.7681,2.7632,2.7587,2.7494,0,0]},{"header":{"parameterUnit":"m.s-1","parameterCategory":1,"la1":30.2992,"la2":30.254,"lo1":-89.0895,"lo2":-89.0443,"dy":0.0025,"dx":0.0025,"nx":19,"ny":19,"refTime":"2026-04-28T09:00:00:Z","depth":0,"parameterNumber":3,"parameterNumberName":"V-component_of_WINDS"},"data":[0,0,0,4.5209,4.5212,4.5364,4.5365,4.5556,4.5558,0,0,0,0,0,0,0,0,0,0,0,4.5167,4.5168,4.5209,4.5213,4.5364,4.5365,4.5556,4.5558,0,0,0,0,0,0,0,0,0,0,0,4.5166,4.5168,4.517,4.5213,4.5364,4.5365,4.5556,4.5441,0,0,0,0,0,0,0,0,0,0,4.5294,4.5258,4.5167,4.517,4.5214,4.5364,4.5365,4.5436,4.5448,4.5488,0,4.5528,0,4.5546,4.5571,4.5572,0,0,0,4.5209,4.5248,4.5287,4.517,4.5216,4.5364,4.5295,4.5443,4.5457,4.5505,4.5531,4.5538,4.555,4.5573,4.5573,4.5824,4.5825,0,0,4.5201,4.5194,4.5277,4.5296,4.5277,4.529,4.53,4.5451,4.5477,4.5531,4.5542,4.5553,4.5574,4.5575,4.5823,4.5825,0,0,0,4.5179,4.5188,4.5224,4.5288,4.5316,4.5294,4.5306,4.547,4.5483,4.5544,4.5555,4.5575,4.5577,4.5822,4.5824,4.5885,0,0,0,4.5174,4.5176,4.522,4.5217,4.5314,4.5396,4.5321,4.5472,4.5489,4.5554,4.5575,4.5579,4.582,4.5823,4.588,4.5914,0,0,0,4.5156,4.5173,4.5197,4.5217,4.5283,4.5394,4.5415,4.5476,4.5496,4.5572,4.558,4.5819,4.5822,4.5876,4.5907,4.5979,0,0,0,4.5133,4.5246,4.5198,4.5328,4.5281,4.5432,4.5414,4.5525,4.5597,4.5576,4.582,4.5823,4.5874,4.5903,4.5974,4.6039,4.6065,0,0,4.5271,4.5262,4.534,4.5301,4.5459,4.5409,4.5574,4.5644,4.5655,4.5766,4.5772,4.5881,4.5906,4.5978,4.6215,4.6236,0,0,0,4.5381,4.5437,4.548,4.5551,4.561,4.5663,4.5709,4.5735,4.5831,4.5713,4.5927,4.5942,4.5984,4.6015,4.6033,4.607,4.5837,4.5837,4.5837,4.5566,4.5578,4.5707,4.5737,4.5806,4.5854,4.591,4.5952,4.5941,4.5991,4.6024,4.6167,4.6204,4.6217,4.6255,4.6059,4.6059,4.6059,4.606,4.577,4.5851,4.5837,4.5957,4.5968,4.6067,4.6117,4.6106,4.6198,4.6143,4.618,4.612,4.624,4.6274,4.6064,4.6063,4.6063,4.6062,4.6062,4.5893,4.5934,4.5967,4.6072,4.615,4.6175,4.6266,4.6271,4.6276,4.6314,4.6349,4.6348,4.6348,4.633,4.6331,4.6331,4.6332,4.6332,4.6332,4.6007,4.6042,4.612,4.6195,4.6242,4.6304,4.6354,4.6399,4.645,4.6446,4.6446,4.643,4.625,4.6205,4.634,4.6339,4.6338,4.6337,4.6337,4.6209,4.6166,4.6286,4.6334,4.6422,4.65,4.6507,4.6598,4.6635,4.668,4.6656,4.6522,4.6512,4.6498,4.646,4.6653,4.6653,4.6653,4.6654,4.6313,4.631,4.6436,4.6512,4.6586,4.6605,4.6738,4.6778,4.6811,4.6835,4.6807,4.6758,4.6744,4.6742,4.6722,4.6688,4.6934,4.6935,4.6935,4.6439,4.6443,4.6557,4.6594,4.6664,4.6722,4.6848,4.6933,4.696,4.6946,4.6853,4.6841,4.6762,4.6736,4.6719,4.6689,4.6625,0,0]}]]